Location: Bannatyne
(13.0833°N, 59.5333°W)
Time: 00:57:55
(UTC+00:00)

Transit 2A - Pass Details

Date: 29 January 2020
Orbit: 600 x 959 km, 66.7° (Epoch: 20 February)

Event Time Altitude Azimuth Distance (km) Brightness Sun altitude
Rises 09:26:19 0° 327° (NNW) 3,210 - -14.5°
Reaches altitude 10° 09:28:43 10° 320° (NW) 2,341 - -13.9°
Exits shadow 09:29:37 15° 316° (NW) 2,032 7.7 -13.7°
Maximum altitude 09:33:48 42° 250° (WSW) 1,180 6.6 -12.7°
Drops below altitude 10° 09:39:21 10° 181° (S) 2,558 8.9 -11.4°
Sets 09:42:05 0° 174° (S) 3,542 9.7 -10.8°
